LEMUR-2-DEMBITZ (42842 NORAD) Tracking and Keplerian Element Data

This shows tracking and keplerian element data for the satellite.

Feedback or suggestion? Click here.




ElementValue
Catalog42842
NameLEMUR-2-DEMBITZ
Epoch Orbit3207
Epoch Day45.49310077
Epoch Year2018
RAAN312.6472
Inclination97.6069
Eccentricity0.001137
Argument of Perigee242.4015
Mean Anonmoly117.605
Mean Motion14.91632869
Decay Rate7.25E-06
L11 42842U 17042T 18045.49310077 .00000725 00000-0 77472-4 0 9998
L22 42842 97.6069 312.6472 0011370 242.4015 117.6050 14.91632869 32075

Live tracking and technical data element details for LEMUR-2-DEMBITZ (NORAD 42842). LEMUR-2-DEMBITZ can be tracked NOW for your location showing map with azimuth and elevation plus other details from your city location.

Track the satellite on the map from your city or location and see movement details for azimuth, elevation, latitude, longitude, range, height, and movement on the map or in text.







IsCatalogInMostPopularTable: catalog: 42842, numindb: 114
Update: records affected: 1



GetName: 42842 LEMUR-2-DEMBITZ

Hit Count: updated at: Tue, 25 Sep 2018 15:15:59 GMT